カタログに戻る

STARLINK-35051

運用中通信SSO
NORAD 65380·PAYLOAD·🇺🇸 United States

打ち上げ Aug 30, 2025 から Vandenberg Space Force Base

Loading…

次のパス (今後24時間)

TLE

最新Source: CelesTrak SupGP

元期: Sep 14, 2026, 23:10 UTC

1 65380C 25191B   26257.96576389  .00073103  00000+0  22694-2 0  2570
2 65380  97.2841 124.0461 0001838  97.0507  86.3967 15.33400482    11

AllMySatでSTARLINK-35051をリアルタイム追跡

Download on the App Store